contact:dominique.lefevre@mio.osupytheas.fr, maurice.libes@osupytheas.fr, didier.mallarino@osupytheas.fr
Project:EMSO http://www.emso-fr.org/EMSO-France
Depth: 2436.0 m
Title:EMSO Ligure Ouest : Data MII capteur AQUADOPP
Date,Latitude,Longitude,X_East,Y_North,Z_Up,Amplitude_X,Amplitude_Y,Amplitude_Z,Batterie,SoundSpeed,Heading,Pitch,Roll,Pressure,TIS,Speed,Direction
, degrees North, degrees East, m.s-1, m.s-1,m.s-1, 1, 1, 1, Volt, m.s-1, degree, degree, degree, dbar, degree_C, m.s-1, degree
2020-05-30T00:04:03,42.805,6.029,0.002,0.016,-0.011,105.0,107.0,103.0,13.3,1505.3,327.2,-0.7,1.8,2470.384,13.33,0.016,7.1
2020-05-30T00:07:03,42.805,6.029,0.01,0.018,-0.017,105.0,108.0,103.0,13.4,1505.3,325.6,-0.7,1.8,2470.39,13.33,0.02,29.1
2020-05-30T00:10:03,42.805,6.029,-0.019,0.004,-0.035,107.0,107.0,101.0,13.4,1505.4,326.4,-0.7,1.8,2470.401,13.34,0.019,281.9
2020-05-30T00:16:03,42.805,6.029,0.065,0.024,0.068,105.0,107.0,101.0,13.4,1505.3,322.7,-0.7,1.8,2470.42,13.32,0.069,69.7
2020-05-30T00:19:03,42.805,6.029,0.041,0.014,0.034,104.0,107.0,102.0,13.4,1505.3,324.5,-0.7,1.8,2470.403,13.33,0.043,71.1
2020-05-30T00:22:03,42.805,6.029,0.006,0.009,-0.014,104.0,108.0,102.0,13.4,1505.3,324.5,-0.7,1.8,2470.464,13.33,0.01,33.7
2020-05-30T00:25:03,42.805,6.029,-0.018,0.032,-0.038,105.0,107.0,102.0,13.4,1505.4,324.1,-0.7,1.8,2470.435,13.34,0.036,330.6
2020-05-30T00:28:03,42.805,6.029,0.047,0.022,0.022,104.0,108.0,102.0,13.4,1505.4,323.5,-0.7,1.8,2470.429,13.34,0.051,64.9
2020-05-30T00:31:03,42.805,6.029,0.068,0.01,0.027,105.0,107.0,101.0,13.3,1505.4,327.3,-0.7,1.9,2470.424,13.34,0.068,81.6
2020-05-30T00:34:03,42.805,6.029,0.054,0.028,0.018,102.0,105.0,100.0,13.4,1505.4,325.1,-0.7,1.8,2470.364,13.34,0.06,62.6
2020-05-30T00:37:03,42.805,6.029,0.045,0.035,0.056,103.0,107.0,101.0,13.4,1505.4,327.5,-0.7,1.8,2470.423,13.34,0.057,52.1
2020-05-30T00:40:03,42.805,6.029,0.043,0.01,0.038,103.0,105.0,101.0,13.3,1505.4,325.5,-0.7,1.8,2470.406,13.34,0.044,76.9
2020-05-30T00:43:03,42.805,6.029,0.051,0.028,0.035,104.0,105.0,103.0,13.4,1505.4,323.4,-0.7,1.9,2470.368,13.34,0.058,61.2
2020-05-30T00:46:03,42.805,6.029,0.037,0.03,0.05,106.0,106.0,102.0,13.3,1505.4,323.0,-0.7,1.8,2470.404,13.34,0.047,51.0
2020-05-30T00:49:03,42.805,6.029,0.015,0.029,0.007,104.0,106.0,101.0,13.3,1505.4,324.5,-0.7,1.8,2470.398,13.34,0.032,27.4
2020-05-30T00:52:03,42.805,6.029,0.057,-0.007,0.057,103.0,106.0,100.0,13.4,1505.4,327.7,-0.7,1.9,2470.396,13.35,0.057,97.0
2020-05-30T00:55:03,42.805,6.029,0.068,0.044,0.057,104.0,106.0,101.0,13.4,1505.4,324.2,-0.7,1.8,2470.383,13.35,0.08,57.1
2020-05-30T00:58:03,42.805,6.029,0.06,0.029,0.051,104.0,106.0,101.0,13.3,1505.4,326.8,-0.7,1.8,2470.388,13.34,0.066,64.2
2020-05-30T01:04:03,42.805,6.029,0.043,0.037,0.044,105.0,106.0,100.0,13.3,1505.3,324.2,-0.7,1.8,2470.418,13.32,0.056,49.3
2020-05-30T01:07:03,42.805,6.029,0.065,0.043,0.029,104.0,106.0,101.0,13.4,1505.3,324.4,-0.7,1.8,2470.386,13.33,0.077,56.5
2020-05-30T01:10:03,42.805,6.029,0.044,0.022,0.027,104.0,104.0,101.0,13.4,1505.3,326.3,-0.7,1.9,2470.399,13.33,0.049,63.4
2020-05-30T01:13:03,42.805,6.029,0.042,0.019,0.033,103.0,106.0,101.0,13.3,1505.4,325.4,-0.7,1.9,2470.416,13.34,0.046,65.7
2020-05-30T01:16:03,42.805,6.029,0.027,0.026,0.032,103.0,106.0,101.0,13.4,1505.4,324.2,-0.7,1.8,2470.395,13.34,0.037,46.1
2020-05-30T01:19:03,42.805,6.029,0.049,0.045,0.041,102.0,106.0,99.0,13.4,1505.4,326.7,-0.7,1.8,2470.425,13.34,0.066,47.4
2020-05-30T01:22:03,42.805,6.029,0.029,0.015,0.013,103.0,107.0,101.0,13.3,1505.4,324.8,-0.7,1.8,2470.416,13.34,0.032,62.6
2020-05-30T01:25:03,42.805,6.029,0.023,0.0,-0.004,101.0,106.0,101.0,13.4,1505.4,326.9,-0.7,1.8,2470.401,13.34,0.023,90.0
2020-05-30T01:28:03,42.805,6.029,0.006,0.025,-0.01,103.0,107.0,102.0,13.3,1505.4,323.5,-0.7,1.8,2470.398,13.34,0.025,13.5
2020-05-30T01:31:03,42.805,6.029,0.034,0.025,0.018,104.0,105.0,101.0,13.4,1505.4,323.5,-0.7,1.9,2470.368,13.34,0.042,53.7
2020-05-30T01:34:03,42.805,6.029,0.04,0.013,-0.002,103.0,106.0,101.0,13.4,1505.4,327.0,-0.7,1.8,2470.395,13.34,0.042,72.0
2020-05-30T01:37:03,42.805,6.029,0.032,0.019,-0.014,104.0,106.0,102.0,13.4,1505.4,326.6,-0.7,1.8,2470.366,13.34,0.037,59.3
2020-05-30T01:40:03,42.805,6.029,0.0,0.032,-0.001,104.0,108.0,101.0,13.3,1505.4,324.7,-0.7,1.8,2470.351,13.34,0.032,0.0
2020-05-30T01:43:03,42.805,6.029,0.017,0.033,0.033,104.0,106.0,102.0,13.3,1505.4,325.6,-0.8,1.9,2470.367,13.34,0.037,27.3
2020-05-30T01:46:03,42.805,6.029,-0.016,0.02,-0.007,105.0,106.0,101.0,13.3,1505.4,324.6,-0.7,1.8,2470.376,13.34,0.025,321.3
2020-05-30T01:49:03,42.805,6.029,0.004,0.047,-0.002,104.0,108.0,102.0,13.3,1505.4,323.7,-0.7,1.8,2470.381,13.34,0.047,4.9
2020-05-30T01:52:03,42.805,6.029,-0.003,0.021,-0.016,103.0,107.0,101.0,13.4,1505.4,326.1,-0.7,1.9,2470.422,13.34,0.021,351.9
2020-05-30T01:55:03,42.805,6.029,0.005,0.009,-0.005,103.0,107.0,101.0,13.4,1505.4,326.9,-0.7,1.8,2470.382,13.34,0.01,29.1
2020-05-30T01:58:03,42.805,6.029,-0.024,0.029,-0.002,105.0,107.0,100.0,13.3,1505.4,323.3,-0.7,1.8,2470.393,13.34,0.037,320.4
2020-05-30T02:04:03,42.805,6.029,-0.016,0.023,-0.028,103.0,106.0,100.0,13.3,1505.3,325.0,-0.7,1.8,2470.402,13.32,0.028,325.2
2020-05-30T02:07:03,42.805,6.029,-0.016,0.02,-0.021,103.0,106.0,102.0,13.3,1505.3,324.8,-0.7,1.8,2470.406,13.33,0.025,321.3
2020-05-30T02:10:03,42.805,6.029,-0.018,0.006,-0.039,104.0,106.0,99.0,13.3,1505.3,325.0,-0.7,1.8,2470.383,13.33,0.018,288.4
2020-05-30T02:13:03,42.805,6.029,0.005,0.034,-0.01,103.0,106.0,101.0,13.3,1505.3,326.0,-0.7,1.8,2470.426,13.33,0.034,8.4
2020-05-30T02:16:03,42.805,6.029,0.004,0.041,-0.03,104.0,105.0,100.0,13.3,1505.3,326.8,-0.7,1.8,2470.392,13.33,0.041,5.6
2020-05-30T02:19:03,42.805,6.029,-0.011,0.015,-0.035,102.0,107.0,101.0,13.3,1505.3,325.4,-0.7,1.8,2470.37,13.33,0.018,323.7
2020-05-30T02:22:03,42.805,6.029,-0.005,0.025,-0.025,104.0,106.0,101.0,13.3,1505.4,324.9,-0.7,1.8,2470.368,13.34,0.025,348.7
2020-05-30T02:25:03,42.805,6.029,0.009,0.011,-0.017,105.0,105.0,102.0,13.4,1505.4,327.8,-0.7,1.8,2470.389,13.34,0.014,39.3
2020-05-30T02:28:03,42.805,6.029,0.016,0.007,0.011,102.0,105.0,104.0,13.4,1505.4,323.3,-0.7,1.9,2470.364,13.34,0.017,66.4
2020-05-30T02:31:03,42.805,6.029,0.03,0.029,0.031,106.0,107.0,101.0,13.4,1505.4,325.4,-0.7,1.8,2470.385,13.34,0.041,46.0
2020-05-30T02:34:03,42.805,6.029,0.039,0.045,0.019,103.0,107.0,102.0,13.3,1505.4,325.7,-0.7,1.8,2470.394,13.34,0.059,40.9
2020-05-30T02:37:03,42.805,6.029,0.0,0.033,-0.002,106.0,106.0,101.0,13.3,1505.4,324.3,-0.7,1.8,2470.383,13.34,0.033,0.0
2020-05-30T02:40:03,42.805,6.029,0.001,0.011,-0.009,105.0,107.0,101.0,13.4,1505.4,327.2,-0.7,1.9,2470.365,13.34,0.011,5.2
2020-05-30T02:43:03,42.805,6.029,0.004,0.024,-0.01,104.0,105.0,101.0,13.3,1505.4,328.5,-0.7,1.8,2470.365,13.34,0.024,9.5
2020-05-30T02:46:03,42.805,6.029,0.025,0.02,-0.013,104.0,106.0,102.0,13.4,1505.4,325.2,-0.7,1.8,2470.384,13.34,0.032,51.3
2020-05-30T02:52:03,42.805,6.029,0.028,0.001,0.004,104.0,106.0,101.0,13.4,1505.3,327.2,-0.7,1.8,2470.435,13.32,0.028,88.0
2020-05-30T02:55:03,42.805,6.029,0.033,-0.003,-0.011,104.0,107.0,100.0,13.4,1505.3,324.3,-0.7,1.8,2470.381,13.33,0.033,95.2
2020-05-30T02:58:03,42.805,6.029,0.005,0.003,-0.029,104.0,106.0,102.0,13.4,1505.3,327.0,-0.7,1.8,2470.412,13.33,0.005,59.0
2020-05-30T03:04:03,42.805,6.029,-0.002,0.027,0.014,103.0,107.0,102.0,13.4,1505.3,326.6,-0.7,1.8,2470.441,13.31,0.027,355.8
2020-05-30T03:07:03,42.805,6.029,-0.005,0.006,0.019,102.0,106.0,101.0,13.4,1505.3,326.4,-0.7,1.9,2470.422,13.32,0.007,320.2
2020-05-30T03:10:03,42.805,6.029,-0.017,0.009,-0.053,102.0,107.0,101.0,13.3,1505.3,326.0,-0.7,1.8,2470.386,13.33,0.019,297.9
2020-05-30T03:13:03,42.805,6.029,0.005,0.015,-0.007,103.0,107.0,101.0,13.4,1505.3,323.3,-0.7,1.8,2470.383,13.33,0.015,18.4
2020-05-30T03:16:03,42.805,6.029,0.024,0.026,-0.004,104.0,107.0,102.0,13.3,1505.3,324.4,-0.7,1.8,2470.362,13.33,0.035,42.7
2020-05-30T03:19:03,42.805,6.029,0.008,0.018,-0.015,105.0,107.0,103.0,13.4,1505.3,323.4,-0.7,1.8,2470.378,13.33,0.019,24.0
2020-05-30T03:22:03,42.805,6.029,0.026,0.032,0.005,106.0,106.0,103.0,13.4,1505.4,326.2,-0.7,1.8,2470.408,13.34,0.041,39.1
2020-05-30T03:25:03,42.805,6.029,0.016,0.017,-0.005,104.0,105.0,102.0,13.4,1505.4,324.8,-0.7,1.8,2470.413,13.34,0.023,43.3
2020-05-30T03:28:03,42.805,6.029,0.051,0.02,0.046,105.0,107.0,101.0,13.4,1505.4,324.6,-0.7,1.8,2470.323,13.34,0.054,68.6
2020-05-30T03:31:03,42.805,6.029,0.031,0.007,-0.013,104.0,107.0,102.0,13.4,1505.4,328.2,-0.7,1.8,2470.385,13.34,0.031,77.3
2020-05-30T03:34:03,42.805,6.029,0.059,0.031,0.045,104.0,106.0,102.0,13.4,1505.4,324.6,-0.7,1.8,2470.37,13.34,0.066,62.3
2020-05-30T03:37:03,42.805,6.029,0.051,0.02,0.048,105.0,107.0,102.0,13.4,1505.4,324.8,-0.7,1.8,2470.364,13.34,0.054,68.6
2020-05-30T03:40:03,42.805,6.029,0.033,0.016,0.017,106.0,107.0,101.0,13.3,1505.4,326.8,-0.7,1.9,2470.347,13.34,0.036,64.1
2020-05-30T03:43:03,42.805,6.029,0.046,0.017,-0.001,103.0,107.0,102.0,13.3,1505.4,326.9,-0.7,1.8,2470.353,13.34,0.049,69.7
2020-05-30T03:46:03,42.805,6.029,0.0,0.012,-0.033,104.0,106.0,102.0,13.4,1505.4,328.3,-0.7,1.8,2470.348,13.34,0.012,0.0
2020-05-30T03:49:03,42.805,6.029,-0.015,0.019,-0.026,103.0,106.0,102.0,13.4,1505.4,326.0,-0.7,1.8,2470.338,13.34,0.024,321.7
2020-05-30T03:52:03,42.805,6.029,-0.022,0.025,-0.022,104.0,106.0,100.0,13.4,1505.4,328.3,-0.7,1.8,2470.312,13.34,0.033,318.7
2020-05-30T03:55:03,42.805,6.029,-0.01,0.011,-0.037,104.0,107.0,102.0,13.3,1505.4,326.9,-0.7,1.8,2470.31,13.34,0.014,317.7
2020-05-30T03:58:03,42.805,6.029,0.005,0.007,-0.009,104.0,107.0,102.0,13.4,1505.4,325.2,-0.7,1.8,2470.323,13.34,0.008,35.5
2020-05-30T04:04:03,42.805,6.029,0.01,0.022,-0.001,103.0,107.0,102.0,13.4,1505.3,326.7,-0.8,1.8,2470.385,13.32,0.024,24.4
2020-05-30T04:07:03,42.805,6.029,-0.011,0.018,-0.034,104.0,105.0,102.0,13.4,1505.3,324.8,-0.7,1.8,2470.369,13.33,0.021,328.6
2020-05-30T04:10:03,42.805,6.029,-0.003,0.018,-0.035,105.0,106.0,102.0,13.3,1505.3,327.4,-0.7,1.8,2470.329,13.33,0.018,350.5
2020-05-30T04:13:03,42.805,6.029,-0.006,0.001,-0.024,104.0,108.0,101.0,13.4,1505.4,323.2,-0.7,1.8,2470.353,13.34,0.006,279.5
2020-05-30T04:16:03,42.805,6.029,-0.02,0.021,-0.03,103.0,109.0,102.0,13.4,1505.4,326.2,-0.7,1.8,2470.341,13.34,0.028,316.4
2020-05-30T04:19:03,42.805,6.029,-0.006,0.034,-0.034,103.0,107.0,100.0,13.4,1505.4,324.9,-0.7,1.8,2470.364,13.34,0.034,350.0
2020-05-30T04:22:03,42.805,6.029,0.012,0.025,-0.01,105.0,107.0,101.0,13.4,1505.4,328.7,-0.7,1.9,2470.34,13.34,0.027,25.6
2020-05-30T04:25:03,42.805,6.029,0.003,0.016,-0.013,103.0,106.0,101.0,13.4,1505.4,327.2,-0.7,1.8,2470.344,13.34,0.016,10.6
2020-05-30T04:28:03,42.805,6.029,0.017,0.027,-0.021,104.0,106.0,102.0,13.4,1505.4,327.8,-0.7,1.8,2470.355,13.34,0.031,32.2
2020-05-30T04:31:03,42.805,6.029,0.03,0.011,-0.027,103.0,107.0,100.0,13.4,1505.4,325.6,-0.7,1.8,2470.318,13.34,0.031,69.9
2020-05-30T04:34:03,42.805,6.029,-0.001,0.008,-0.035,103.0,106.0,100.0,13.3,1505.4,325.1,-0.7,1.9,2470.344,13.34,0.008,352.9
2020-05-30T04:37:03,42.805,6.029,0.014,0.009,-0.008,103.0,108.0,101.0,13.4,1505.4,323.8,-0.7,1.8,2470.335,13.34,0.016,57.3
2020-05-30T04:40:03,42.805,6.029,0.004,0.021,-0.039,102.0,106.0,100.0,13.4,1505.4,324.9,-0.7,1.8,2470.312,13.34,0.021,10.8
2020-05-30T04:43:03,42.805,6.029,-0.022,0.02,-0.04,103.0,106.0,101.0,13.4,1505.4,328.1,-0.7,1.8,2470.297,13.34,0.029,312.3
2020-05-30T04:46:03,42.805,6.029,0.027,0.02,0.002,102.0,105.0,101.0,13.4,1505.4,323.5,-0.7,1.8,2470.302,13.34,0.033,53.5
2020-05-30T04:49:03,42.805,6.029,0.03,0.042,0.033,103.0,106.0,102.0,13.4,1505.4,323.4,-0.7,1.8,2470.334,13.34,0.051,35.5
2020-05-30T04:52:03,42.805,6.029,0.026,0.005,-0.01,104.0,106.0,101.0,13.4,1505.4,328.6,-0.7,1.8,2470.282,13.34,0.026,79.1
2020-05-30T04:55:03,42.805,6.029,0.039,0.037,0.024,104.0,107.0,100.0,13.3,1505.4,325.1,-0.7,1.8,2470.338,13.34,0.053,46.5
2020-05-30T04:58:03,42.805,6.029,0.023,0.014,0.0,104.0,106.0,101.0,13.4,1505.4,323.6,-0.7,1.8,2470.284,13.34,0.026,58.7
2020-05-30T05:04:03,42.805,6.029,0.05,0.023,0.042,103.0,107.0,101.0,13.3,1505.3,327.3,-0.7,1.8,2470.331,13.32,0.055,65.3
2020-05-30T05:07:03,42.805,6.029,0.014,0.013,0.003,103.0,107.0,101.0,13.3,1505.3,324.7,-0.7,1.8,2470.346,13.33,0.019,47.1
2020-05-30T05:10:03,42.805,6.029,0.033,0.034,0.009,103.0,108.0,101.0,13.3,1505.3,325.3,-0.7,1.9,2470.301,13.33,0.047,44.1
2020-05-30T05:13:03,42.805,6.029,0.078,0.036,0.051,103.0,106.0,100.0,13.4,1505.3,326.4,-0.7,1.8,2470.327,13.33,0.085,65.2
2020-05-30T05:16:03,42.805,6.029,0.061,0.027,0.031,104.0,107.0,101.0,13.3,1505.4,324.1,-0.7,1.8,2470.327,13.34,0.066,66.1
2020-05-30T05:19:03,42.805,6.029,0.048,0.025,0.031,102.0,107.0,101.0,13.4,1505.4,326.9,-0.7,1.8,2470.328,13.34,0.054,62.5
2020-05-30T05:22:03,42.805,6.029,0.048,0.039,0.039,105.0,106.0,101.0,13.4,1505.4,325.2,-0.7,1.8,2470.283,13.34,0.061,50.9
2020-05-30T05:25:03,42.805,6.029,0.07,0.015,0.056,104.0,106.0,105.0,13.4,1505.4,328.4,-0.7,1.8,2470.297,13.34,0.071,77.9
2020-05-30T05:28:03,42.805,6.029,-0.001,0.013,-0.043,104.0,108.0,102.0,13.4,1505.4,325.6,-0.7,1.8,2470.309,13.34,0.013,355.6
2020-05-30T05:31:03,42.805,6.029,-0.004,0.022,-0.012,104.0,108.0,101.0,13.4,1505.4,326.8,-0.7,1.8,2470.307,13.34,0.022,349.7
2020-05-30T05:34:03,42.805,6.029,0.028,0.017,-0.037,104.0,109.0,101.0,13.4,1505.4,323.5,-0.7,1.8,2470.325,13.34,0.032,58.7
2020-05-30T05:37:03,42.805,6.029,-0.01,0.017,-0.037,103.0,108.0,101.0,13.3,1505.4,325.6,-0.7,1.8,2470.328,13.34,0.019,329.5
2020-05-30T05:40:03,42.805,6.029,-0.006,0.017,-0.047,104.0,107.0,101.0,13.3,1505.4,328.4,-0.7,1.8,2470.265,13.34,0.018,340.6
2020-05-30T05:43:03,42.805,6.029,0.085,0.04,0.018,105.0,107.0,101.0,13.3,1505.4,325.5,-0.7,1.8,2470.304,13.34,0.093,64.8
2020-05-30T05:46:03,42.805,6.029,0.0,0.009,-0.044,104.0,107.0,102.0,13.4,1505.4,323.9,-0.7,1.9,2470.248,13.34,0.009,0.0
2020-05-30T05:49:03,42.805,6.029,-0.022,0.038,-0.042,103.0,108.0,101.0,13.4,1505.4,327.0,-0.7,1.8,2470.279,13.34,0.043,329.9
2020-05-30T05:52:03,42.805,6.029,0.005,0.012,-0.007,104.0,106.0,103.0,13.4,1505.4,326.2,-0.7,1.8,2470.261,13.34,0.013,22.6
2020-05-30T05:55:03,42.805,6.029,0.002,0.023,-0.008,103.0,107.0,100.0,13.4,1505.4,322.9,-0.7,1.8,2470.293,13.34,0.023,5.0
2020-05-30T05:58:03,42.805,6.029,0.02,0.005,-0.01,104.0,108.0,100.0,13.4,1505.4,325.5,-0.7,1.8,2470.341,13.34,0.02,76.0
2020-05-30T06:04:03,42.805,6.029,0.014,-0.013,-0.007,105.0,106.0,102.0,13.4,1505.3,327.2,-0.7,1.8,2470.281,13.32,0.019,132.9
2020-05-30T06:07:03,42.805,6.029,0.0,0.01,0.004,103.0,107.0,102.0,13.4,1505.3,326.9,-0.7,1.8,2470.302,13.32,0.01,0.0
2020-05-30T06:10:03,42.805,6.029,-0.005,0.008,-0.005,105.0,107.0,102.0,13.4,1505.3,328.1,-0.7,1.9,2470.269,13.33,0.009,328.0
2020-05-30T06:13:03,42.805,6.029,-0.024,0.015,-0.027,103.0,108.0,101.0,13.4,1505.3,326.4,-0.7,1.8,2470.32,13.33,0.028,302.0
2020-05-30T06:16:03,42.805,6.029,0.003,0.01,-0.028,103.0,108.0,102.0,13.3,1505.3,328.0,-0.7,1.8,2470.27,13.33,0.01,16.7
2020-05-30T06:19:03,42.805,6.029,0.012,0.029,0.06,103.0,109.0,101.0,13.3,1505.3,325.8,-0.7,1.8,2470.28,13.33,0.031,22.5
2020-05-30T06:22:03,42.805,6.029,0.031,0.021,-0.013,105.0,106.0,102.0,13.4,1505.3,327.5,-0.7,1.8,2470.274,13.33,0.037,55.9
2020-05-30T06:25:03,42.805,6.029,0.042,0.016,0.017,103.0,107.0,103.0,13.4,1505.3,326.7,-0.7,1.8,2470.262,13.33,0.044,69.1
2020-05-30T06:28:03,42.805,6.029,0.098,0.001,0.041,103.0,106.0,102.0,13.4,1505.3,327.8,-0.7,1.8,2470.309,13.33,0.098,89.4
2020-05-30T06:31:03,42.805,6.029,0.076,0.013,0.06,104.0,105.0,101.0,13.4,1505.3,324.8,-0.7,1.8,2470.273,13.33,0.077,80.3
2020-05-30T06:34:03,42.805,6.029,0.062,0.016,0.07,103.0,105.0,102.0,13.4,1505.3,324.5,-0.7,1.9,2470.253,13.33,0.064,75.5
2020-05-30T06:37:03,42.805,6.029,0.039,0.031,0.048,104.0,106.0,101.0,13.4,1505.3,327.2,-0.7,1.8,2470.323,13.33,0.049,51.5
2020-05-30T06:40:03,42.805,6.029,0.04,0.015,-0.018,103.0,105.0,101.0,13.4,1505.3,324.1,-0.7,1.8,2470.258,13.33,0.042,69.4
2020-05-30T06:43:03,42.805,6.029,0.036,0.038,0.034,103.0,105.0,101.0,13.3,1505.3,327.8,-0.7,1.9,2470.259,13.33,0.052,43.5
2020-05-30T06:46:03,42.805,6.029,0.051,0.008,0.021,104.0,105.0,101.0,13.4,1505.3,326.8,-0.7,1.9,2470.24,13.33,0.051,81.1
2020-05-30T06:49:03,42.805,6.029,0.053,-0.002,0.016,104.0,106.0,101.0,13.3,1505.3,325.2,-0.8,1.8,2470.263,13.33,0.053,92.2
2020-05-30T06:52:03,42.805,6.029,0.042,0.007,0.037,104.0,106.0,100.0,13.4,1505.3,325.8,-0.7,1.8,2470.242,13.33,0.042,80.5
2020-05-30T06:55:03,42.805,6.029,0.056,0.028,0.023,105.0,106.0,100.0,13.4,1505.3,326.5,-0.7,1.8,2470.24,13.33,0.062,63.4
2020-05-30T06:58:03,42.805,6.029,0.081,0.023,0.052,103.0,106.0,101.0,13.3,1505.3,324.3,-0.7,1.8,2470.229,13.33,0.084,74.2
2020-05-30T07:04:03,42.805,6.029,0.083,0.017,0.049,104.0,106.0,102.0,13.4,1505.3,325.7,-0.7,1.8,2470.28,13.31,0.084,78.4
2020-05-30T07:07:03,42.805,6.029,0.025,-0.005,0.02,102.0,106.0,101.0,13.4,1505.3,324.4,-0.7,1.8,2470.272,13.32,0.025,101.3
2020-05-30T07:10:03,42.805,6.029,0.041,0.004,0.025,104.0,107.0,101.0,13.4,1505.3,327.9,-0.7,1.8,2470.264,13.32,0.041,84.4
2020-05-30T07:13:03,42.805,6.029,0.044,0.014,0.007,103.0,106.0,102.0,13.3,1505.3,326.7,-0.7,1.8,2470.196,13.32,0.046,72.4
2020-05-30T07:16:03,42.805,6.029,0.04,0.005,0.016,103.0,108.0,100.0,13.4,1505.3,328.5,-0.7,1.8,2470.244,13.33,0.04,82.9
2020-05-30T07:19:03,42.805,6.029,0.04,0.002,0.007,103.0,105.0,101.0,13.4,1505.3,323.4,-0.7,1.8,2470.22,13.33,0.04,87.1
2020-05-30T07:22:03,42.805,6.029,0.045,0.017,-0.01,103.0,107.0,101.0,13.3,1505.3,323.7,-0.7,1.8,2470.276,13.33,0.048,69.3
2020-05-30T07:25:03,42.805,6.029,0.026,0.015,0.003,103.0,107.0,101.0,13.4,1505.3,324.2,-0.7,1.8,2470.235,13.33,0.03,60.0
2020-05-30T07:28:03,42.805,6.029,0.046,0.004,-0.023,102.0,105.0,101.0,13.4,1505.3,325.9,-0.7,1.8,2470.251,13.33,0.046,85.0
2020-05-30T07:31:03,42.805,6.029,0.026,0.0,0.008,104.0,106.0,101.0,13.3,1505.3,328.2,-0.7,1.8,2470.255,13.33,0.026,90.0
2020-05-30T07:34:03,42.805,6.029,0.034,0.023,0.004,106.0,106.0,101.0,13.4,1505.3,323.0,-0.7,1.8,2470.205,13.33,0.041,55.9
2020-05-30T07:37:03,42.805,6.029,0.034,0.012,0.017,102.0,106.0,102.0,13.3,1505.3,326.5,-0.7,1.8,2470.203,13.33,0.036,70.6
2020-05-30T07:40:03,42.805,6.029,0.021,0.011,-0.009,103.0,105.0,101.0,13.4,1505.3,326.4,-0.7,1.8,2470.208,13.33,0.023,62.4
2020-05-30T07:43:03,42.805,6.029,0.034,-0.008,-0.03,103.0,105.0,101.0,13.3,1505.3,324.6,-0.7,1.9,2470.217,13.33,0.034,103.2
2020-05-30T07:46:03,42.805,6.029,0.013,0.024,0.0,103.0,105.0,101.0,13.4,1505.3,326.8,-0.7,1.8,2470.235,13.33,0.027,28.4
2020-05-30T07:49:03,42.805,6.029,0.028,0.004,-0.007,103.0,106.0,100.0,13.3,1505.3,325.1,-0.7,1.8,2470.23,13.33,0.028,81.9
2020-05-30T07:52:03,42.805,6.029,0.02,0.012,-0.026,103.0,106.0,100.0,13.4,1505.3,324.2,-0.7,1.8,2470.227,13.33,0.023,59.0
2020-05-30T07:55:03,42.805,6.029,-0.039,0.004,-0.051,103.0,106.0,101.0,13.4,1505.3,325.4,-0.7,1.8,2470.222,13.33,0.039,275.9
2020-05-30T07:58:03,42.805,6.029,0.0,0.029,-0.045,104.0,106.0,101.0,13.4,1505.3,327.4,-0.7,1.8,2470.244,13.33,0.028,0.0
2020-05-30T08:04:03,42.805,6.029,-0.001,0.002,-0.034,104.0,105.0,102.0,13.3,1505.3,325.3,-0.7,1.8,2470.244,13.31,0.002,333.4
2020-05-30T08:07:03,42.805,6.029,-0.019,0.02,-0.056,103.0,105.0,102.0,13.4,1505.3,324.7,-0.7,1.8,2470.24,13.31,0.027,316.5
2020-05-30T08:10:03,42.805,6.029,0.048,0.003,0.009,103.0,106.0,101.0,13.3,1505.3,328.4,-0.7,1.8,2470.263,13.32,0.048,86.4
2020-05-30T08:13:03,42.805,6.029,0.03,0.016,0.002,104.0,106.0,101.0,13.3,1505.3,328.2,-0.7,1.8,2470.237,13.32,0.034,61.9
2020-05-30T08:16:03,42.805,6.029,0.037,0.007,-0.02,103.0,106.0,102.0,13.4,1505.3,326.6,-0.7,1.8,2470.244,13.32,0.037,79.3
2020-05-30T08:19:03,42.805,6.029,0.029,0.008,-0.019,104.0,105.0,101.0,13.4,1505.3,323.2,-0.7,1.9,2470.197,13.32,0.03,74.6
2020-05-30T08:22:03,42.805,6.029,0.029,0.013,0.01,103.0,106.0,101.0,13.4,1505.3,323.9,-0.7,1.8,2470.258,13.33,0.031,65.9
2020-05-30T08:25:03,42.805,6.029,-0.018,0.013,-0.037,103.0,106.0,100.0,13.4,1505.3,325.9,-0.7,1.8,2470.207,13.33,0.022,305.8
2020-05-30T08:28:03,42.805,6.029,-0.011,0.014,-0.017,104.0,106.0,101.0,13.4,1505.3,325.9,-0.7,1.9,2470.238,13.33,0.017,321.8
2020-05-30T08:31:03,42.805,6.029,-0.002,0.005,-0.06,104.0,108.0,101.0,13.4,1505.3,325.3,-0.7,1.9,2470.183,13.33,0.005,338.2
2020-05-30T08:34:03,42.805,6.029,0.005,0.031,-0.036,104.0,107.0,101.0,13.3,1505.3,323.4,-0.7,1.8,2470.215,13.33,0.031,9.2
2020-05-30T08:37:03,42.805,6.029,0.027,0.01,-0.012,105.0,107.0,101.0,13.4,1505.3,323.2,-0.7,1.9,2470.262,13.33,0.028,69.7
2020-05-30T08:40:03,42.805,6.029,-0.029,0.015,-0.084,105.0,107.0,102.0,13.4,1505.3,327.0,-0.7,1.8,2470.178,13.33,0.032,297.4
2020-05-30T08:43:03,42.805,6.029,-0.014,0.014,-0.036,103.0,107.0,101.0,13.3,1505.3,326.5,-0.7,1.8,2470.2,13.33,0.019,315.0
2020-05-30T08:46:03,42.805,6.029,-0.004,0.003,-0.04,103.0,109.0,100.0,13.4,1505.3,326.6,-0.7,1.8,2470.2,13.33,0.005,306.9
2020-05-30T08:49:03,42.805,6.029,0.012,0.027,-0.03,104.0,108.0,102.0,13.4,1505.3,323.2,-0.7,1.9,2470.182,13.33,0.029,24.0
2020-05-30T08:52:03,42.805,6.029,-0.007,0.019,-0.058,106.0,108.0,101.0,13.4,1505.3,326.3,-0.7,1.8,2470.235,13.33,0.02,339.8
2020-05-30T08:58:03,42.805,6.029,0.012,-0.001,-0.053,104.0,108.0,100.0,13.4,1505.3,326.2,-0.7,1.8,2470.233,13.31,0.012,94.8
2020-05-30T09:04:03,42.805,6.029,0.004,0.018,-0.035,105.0,108.0,102.0,13.4,1505.2,328.1,-0.7,1.8,2470.267,13.3,0.018,12.5
2020-05-30T09:07:03,42.805,6.029,0.05,0.012,0.018,104.0,107.0,101.0,13.4,1505.3,326.8,-0.7,1.8,2470.303,13.31,0.051,76.5
2020-05-30T09:10:03,42.805,6.029,0.06,0.016,0.02,104.0,107.0,101.0,13.4,1505.3,325.0,-0.7,1.8,2470.235,13.31,0.062,75.1
2020-05-30T09:13:03,42.805,6.029,0.075,0.014,0.041,105.0,107.0,101.0,13.4,1505.3,324.6,-0.7,1.8,2470.253,13.32,0.076,79.4
2020-05-30T09:16:03,42.805,6.029,0.012,0.009,-0.032,105.0,107.0,101.0,13.4,1505.3,325.2,-0.7,1.8,2470.264,13.32,0.015,53.1
2020-05-30T09:19:03,42.805,6.029,0.012,-0.002,-0.016,104.0,108.0,101.0,13.4,1505.3,325.6,-0.7,1.8,2470.237,13.32,0.012,99.5
2020-05-30T09:22:03,42.805,6.029,0.014,0.003,-0.027,104.0,107.0,101.0,13.3,1505.3,326.1,-0.7,1.8,2470.235,13.32,0.014,77.9
2020-05-30T09:25:03,42.805,6.029,0.022,0.005,-0.04,103.0,109.0,102.0,13.4,1505.3,323.1,-0.7,1.8,2470.229,13.32,0.022,77.2
2020-05-30T09:28:03,42.805,6.029,0.006,0.0,-0.048,104.0,108.0,101.0,13.4,1505.3,322.8,-0.7,1.8,2470.223,13.32,0.006,90.0
2020-05-30T09:31:03,42.805,6.029,0.015,0.014,-0.014,103.0,107.0,101.0,13.4,1505.3,327.8,-0.7,1.8,2470.222,13.32,0.02,47.0
2020-05-30T09:34:03,42.805,6.029,0.027,-0.01,-0.021,105.0,106.0,101.0,13.4,1505.3,328.6,-0.7,1.9,2470.218,13.32,0.028,110.3
2020-05-30T09:37:03,42.805,6.029,0.001,0.01,-0.03,103.0,108.0,101.0,13.3,1505.3,324.5,-0.7,1.8,2470.21,13.32,0.01,5.7
2020-05-30T09:40:03,42.805,6.029,0.014,0.025,-0.027,104.0,107.0,101.0,13.4,1505.3,326.6,-0.7,1.9,2470.227,13.32,0.028,29.3
2020-05-30T09:43:03,42.805,6.029,0.034,-0.004,-0.036,104.0,106.0,101.0,13.3,1505.3,322.7,-0.7,1.8,2470.261,13.32,0.034,96.7
2020-05-30T09:46:03,42.805,6.029,0.038,0.007,-0.028,104.0,106.0,101.0,13.4,1505.3,326.2,-0.7,1.9,2470.176,13.33,0.038,79.6
2020-05-30T09:49:03,42.805,6.029,0.026,0.008,-0.019,104.0,106.0,101.0,13.3,1505.3,325.2,-0.7,1.9,2470.219,13.33,0.027,72.9
2020-05-30T09:52:03,42.805,6.029,0.03,0.017,-0.008,103.0,107.0,102.0,13.3,1505.3,327.1,-0.7,1.9,2470.202,13.32,0.034,60.5
2020-05-30T09:55:03,42.805,6.029,0.037,0.023,-0.027,104.0,107.0,101.0,13.4,1505.3,324.2,-0.7,1.8,2470.274,13.33,0.043,58.1
2020-05-30T09:58:03,42.805,6.029,0.04,-0.005,-0.021,104.0,107.0,100.0,13.4,1505.3,325.9,-0.7,1.8,2470.249,13.33,0.04,97.1
2020-05-30T10:04:03,42.805,6.029,0.046,0.009,-0.007,104.0,106.0,101.0,13.4,1505.3,326.3,-0.8,1.8,2470.282,13.31,0.046,78.9
2020-05-30T10:07:03,42.805,6.029,0.067,0.004,0.046,104.0,107.0,102.0,13.4,1505.3,326.9,-0.7,1.8,2470.252,13.31,0.067,86.6
2020-05-30T10:10:03,42.805,6.029,0.041,0.011,0.007,102.0,107.0,102.0,13.3,1505.3,326.5,-0.7,1.8,2470.272,13.32,0.042,75.0
2020-05-30T10:13:03,42.805,6.029,0.021,0.016,0.018,104.0,106.0,101.0,13.4,1505.3,328.4,-0.7,1.8,2470.227,13.32,0.026,52.7
2020-05-30T10:16:03,42.805,6.029,0.041,0.017,0.01,104.0,107.0,102.0,13.3,1505.3,323.6,-0.7,1.8,2470.278,13.32,0.044,67.5